Погода в Борисове

Хотите узнать прогноз погоды в Борисове? Тогда Вам сюда: Погода в Борисове

Поиск расширенной информации на нашем сайте:

Полезная информация:

Новости сайта



02.01.2020
Опубликован Долгосрочный прогноз погоды по городам России и ближнего зарубежья на январь 2020 года.
Карты: Прогноз на январь и февраль 2020 года, Сравнение прогнозируемой аномалии приземной температуры воздуха на январь 2020 года по разным моделям.




Погода в Борисове - сегодня

Время (UTC), дата Ветер
(°,м/с) 
Видим.   Явления Облачность Т
(°С)
Тd
(°С)
f(%) Тe
(°С)
Pmin
(гПа)
dP
(гПа)
Po
(мм)
O2
(г/м3)
Тmin Tmax R s Состояние
почвы
12 22.10.21 240 (ЮЗ) 5-12{15}  50000 м  в посл. час ливневой дождь  9/9 300 м кучево-дожд. 
[Cb calv]
+8.3 +1.2 61 +7  1003.1  1.5  735  287      0.0     
15 22.10.21 240 (ЮЗ) 5{14}  50000 м    9/9 300 м 
[Sc]
+8 +0.2 58 +6  1003.8  0.7  736  288           
18 22.10.21 240 (ЮЗ) 5{10}  50000 м    9/9 <0100 м 
[Sc]
+7.7 +1.1 63 +6  1003.7  -0.1  736  288    +9  0.0     
21 22.10.21 230 (ЮЗ) 5{11}  50000 м  в посл. час дождь  9/9 600 м 
[Sc]
+6.7 +2.4 74 +5  1002.9  -0.9  735  289           
00 23.10.21 230 (ЮЗ) 5-10{11}  50000 м  {дождь}  9/9 600 м 
[Sc]
+6.8 +2.5 74 +5  1001.9  -1  734  288           
03 23.10.21 260 (З) 3{12}  50000 м  в посл. час дождь  9/9 600 м 
[Sc]
+5.5 +3.5 87 +4  1003.4  1.4  735  290      0.4     
06 23.10.21 250 (З) 50000 м  слаб. дождь  9/9 300 м 
[Sc]
+4.8 +2.8 87 +4  1005.7  2.2  737  291  +4.5    0.5     
09 23.10.21 270 (З) 50000 м  в посл. час ливневой дождь  9/9 300 м кучево-дожд. 
[Cb calv]
+5.1 +4.1 93 +5  1008.6  2.8  739  292           
12 23.10.21 270 (З) 1{12}  50000 м  слаб. ливневой дождь  8/8 300 м кучево-дожд. 
[Cb calv]
+5.9 +4.4 90 +7  1010.2  1.7  740  291           
15 23.10.21 250 (З) 27000 м  слаб. ливневой дождь  9/9 600 м кучево-дожд. 
[Cb calv]
+6.4 +2.8 78 +5  1011.6  1.4  742  291           
18 23.10.21 270 (З) 50000 м  {ливн. осадки}  9/9 1000 м 
[Sc]
+4.5 +3.8 95 +4  1013.8  743  294    +7.5     
21 23.10.21 270 (З) 50000 м    8/8 300 м 
[St]
+4.4 +3.5 94 +5  1016  2.1  745  295           
00 24.10.21 290 (З) 50000 м    8/8 1000 м 
[Sc]
+3.6 +2 89 +3  1018.3  2.2  746  296           
03 24.10.21 340 (С) 50000 м    8/8 1000 м 
[Sc]
+3.5 +2.2 91 +2  1020.6  2.2  748  297           
06 24.10.21 330 (СЗ) 50000 м  {дождь}  9/9 600 м 
[Sc]
+2.1 +0.6 90 +1  1023.6  2.8  750  300  +1.8    0.0     
09 24.10.21 300 (СЗ) 50000 м  в посл. час ливневой дождь  9/9 600 м кучево-дожд. 
[Cb calv]
+3.9 +0.1 76 +3  1026.2  2.7  752  299           
12 24.10.21 360 (С) 50000 м  {ливн. осадки}  8/8 600 м 
[Sc]
+4.9 -2.2 60 +5  1027.9  1.8  753  298           
15 24.10.21 320 (СЗ) 50000 м    9/3 1000 м средняя 
[Sc|Ac trans]
+2.5 -2.6 69 +3  1029.3  1.1  754  301      0.0     
18 24.10.21 тихо ()   50000 м    6/0 средняя 
[Ac trans]
+1.8 -1.3 80 +2  1030.3  0.9  755  302    +5.6  0.0     
21 24.10.21 тихо ()   50000 м    3/0 средняя 
[Ac trans]
+0 -1 93 1031.4  0.9  756  305           
00 25.10.21 тихо ()   30000 м    ясно 
-2.1 -2.2 99 -2  1032.1  0.5  756  307           
03 25.10.21 250 (З) 15000 м    ясно 
-1.7 -1.7 100 -1  1032  756  307           
06 25.10.21 тихо ()   8000 м  дымка  3/0 верхняя 
[Ci fib]
-1.3 -1.3 100 -1  1032.1  0.1  756  306  -2.8         
09 25.10.21 210 (ЮЗ) 50000 м    ясно 
+6.1 +1.2 71 +5  1031.1  -0.3  756  298           
12 25.10.21 240 (ЮЗ) 40000 м    3/3 600 м 
[Cu hum]
+8 +1.2 62 +7  1029.5  -1.4  755  295           
Время (UTC), дата Ветер
(°,м/с) 
Видим.   Явления Облачность Т
(°С)
Тd
(°С)
f(%) Тe
(°С)
Pmin
(гПа)
dP
(гПа)
Po
(мм)
O2
(г/м3)
Тmin Tmax R s Состояние
почвы

Для получения пояснительной информации подведите курсор к названию столбца.

ПОГОДА в Борисове - архив

Всё, что Вы хотите узнать о погоде в Борисове - удобно и подробно!

Выберите нужную дату (начиная с 1 января 2019* года) и нажмите кнопку "Найти".
Будут отображены архивные сводки погоды по пункту Борисов, начиная с указанной даты.


Отображать данные в формате CSV (для использования в таблицах Excel)


Внимание! Наш архив погоды предназначен исключительно для личного некоммерческого использования в познавательных целях. Если Вам необходимы официальные справки о состоянии погоды (для производственных, юридических, коммерческих и т.п. целей), обращайтесь в органы Росгидромета.

*Примечание: данная дата относится к архиву по метеостанциям СССР (Россия, СНГ, Балтия).
Архив по метеостанциям Зарубежной Европы и Азии (кроме Китая) хранится 10 дней, по другим регионам земного шара (Китай, Африка, Америка, Австралия, Океания) - 1 день.

Борисов - район местоположения метеостанции


Название, широта, долгота, высота метеостанции:
Борисов 54.3°ш. 28.5°д. 189 м над ур. моря [Беларусь]

Дополнительная информация

В oтличие oт бoльшинства пoгoдных сайтoв мы публикуем пoдрoбную метеoинфoрмацию в детальнoм прoфессиoнальнoм фoрмате.

Характеристики температуры и влажнoсти вoздуха измеряются на высoте 2 м в тени вдали oт зданий и деревьев.
Скoрoсть ветра измеряется на высoте 10 м (на урoвне рoста челoвека скoрoсть ветра ниже в 1.5-2 раза). Если метеoстанция нахoдится в гoрoде или в лесу, тo скoрoсть ветра занижена на 2-4 м/с пo сравнению с oткрытым местoм. Скoрoсть ветра над акватoриями крупных рек и oзёр, а также на вершинах хoлмoв на 2-5 м/с выше, чем в oбычных услoвиях.
Атмoсфернoе давление в разных тoчках местнoсти мoжет значительнo oтличаться oт давления на метеoстанции, в зависимoсти oт услoвий рельефа (при пoдъёме на 10 м давление пoнижается примернo на 1 мм рт.ст.).